Time,TemperatureF,DewpointF,PressureIn,WindDirection,WindDirectionDegrees,WindSpeedMPH,WindSpeedGustMPH,Humidity,HourlyPrecipIn,Conditions,Clouds,dailyrainin,SolarRadiationWatts/m^2,SoftwareType,DateUTC
2013-01-07 00:22:00,22.0,18.0,-100.00,South,175,10.0,18.0,84,0.00,,,0.00,0.000000,,2013-01-07 06:22:00,
2013-01-07 00:32:00,22.0,18.0,-100.00,South,175,10.0,18.0,84,0.00,,,0.00,0.000000,,2013-01-07 06:32:00,
2013-01-07 00:42:00,22.0,18.0,-100.00,South,175,10.0,18.0,84,0.00,,,0.00,0.000000,,2013-01-07 06:42:00,
2013-01-07 00:52:00,22.0,18.0,-100.00,South,175,10.0,18.0,84,0.00,,,0.00,0.000000,,2013-01-07 06:52:00,
2013-01-07 01:22:00,27.0,21.0,-100.00,South,172,16.0,19.0,78,0.00,,,0.00,0.000000,,2013-01-07 07:22:00,
2013-01-07 01:33:00,27.0,21.0,-100.00,South,172,16.0,19.0,78,0.00,,,0.00,0.000000,,2013-01-07 07:33:00,
2013-01-07 01:42:00,27.0,21.0,-100.00,South,172,16.0,19.0,78,0.00,,,0.00,0.000000,,2013-01-07 07:42:00,
2013-01-07 01:52:00,27.0,21.0,-100.00,South,172,16.0,19.0,78,0.00,,,0.00,0.000000,,2013-01-07 07:52:00,
2013-01-07 02:22:00,29.0,22.0,-100.00,South,186,16.0,21.0,75,0.00,,,0.00,0.000000,,2013-01-07 08:22:00,
2013-01-07 02:32:00,29.0,22.0,-100.00,South,186,16.0,21.0,75,0.00,,,0.00,0.000000,,2013-01-07 08:32:00,
2013-01-07 02:42:00,29.0,22.0,-100.00,South,186,16.0,21.0,75,0.00,,,0.00,0.000000,,2013-01-07 08:42:00,
2013-01-07 02:52:00,29.0,22.0,-100.00,South,186,16.0,21.0,75,0.00,,,0.00,0.000000,,2013-01-07 08:52:00,
2013-01-07 03:22:00,30.0,22.0,-100.00,South,182,20.0,26.0,73,0.00,,,0.00,0.000000,,2013-01-07 09:22:00,
2013-01-07 03:32:00,30.0,22.0,-100.00,South,182,20.0,26.0,73,0.00,,,0.00,0.000000,,2013-01-07 09:32:00,
2013-01-07 03:42:00,30.0,22.0,-100.00,South,182,20.0,26.0,73,0.00,,,0.00,0.000000,,2013-01-07 09:42:00,
2013-01-07 03:52:00,30.0,22.0,-100.00,South,182,20.0,26.0,73,0.00,,,0.00,0.000000,,2013-01-07 09:52:00,
2013-01-07 04:22:00,30.0,23.0,-100.00,SSW,194,18.0,26.0,75,0.00,,,0.00,0.000000,,2013-01-07 10:22:00,
2013-01-07 04:32:00,30.0,23.0,-100.00,SSW,194,18.0,26.0,75,0.00,,,0.00,0.000000,,2013-01-07 10:32:00,
2013-01-07 04:42:00,30.0,23.0,-100.00,SSW,194,18.0,26.0,75,0.00,,,0.00,0.000000,,2013-01-07 10:42:00,
2013-01-07 04:52:00,30.0,23.0,-100.00,SSW,194,18.0,26.0,75,0.00,,,0.00,0.000000,,2013-01-07 10:52:00,
2013-01-07 05:23:00,29.0,23.0,-100.00,South,181,18.0,21.0,77,0.00,,,0.00,0.000000,,2013-01-07 11:23:00,
2013-01-07 05:33:00,29.0,23.0,-100.00,South,181,18.0,21.0,77,0.00,,,0.00,0.000000,,2013-01-07 11:33:00,
2013-01-07 05:43:00,29.0,23.0,-100.00,South,181,18.0,21.0,77,0.00,,,0.00,0.000000,,2013-01-07 11:43:00,
2013-01-07 05:53:00,29.0,23.0,-100.00,South,181,18.0,21.0,77,0.00,,,0.00,0.000000,,2013-01-07 11:53:00,
2013-01-07 06:22:00,29.0,22.0,-100.00,SSW,196,13.0,19.0,76,0.00,,,0.00,0.000000,,2013-01-07 12:22:00,
2013-01-07 06:33:00,29.0,22.0,-100.00,SSW,196,13.0,19.0,76,0.00,,,0.00,0.000000,,2013-01-07 12:33:00,
2013-01-07 06:43:00,29.0,22.0,-100.00,SSW,196,13.0,19.0,76,0.00,,,0.00,0.000000,,2013-01-07 12:43:00,
2013-01-07 06:52:00,29.0,22.0,-100.00,SSW,196,13.0,19.0,76,0.00,,,0.00,0.000000,,2013-01-07 12:52:00,
2013-01-07 07:23:00,28.0,22.0,-100.00,SSW,204,13.0,16.0,78,0.00,,,0.00,0.000000,,2013-01-07 13:23:00,
2013-01-07 07:33:00,28.0,22.0,-100.00,SSW,204,13.0,16.0,78,0.00,,,0.00,0.000000,,2013-01-07 13:33:00,
2013-01-07 07:42:00,28.0,22.0,-100.00,SSW,204,13.0,16.0,78,0.00,,,0.00,0.000000,,2013-01-07 13:42:00,
2013-01-07 07:52:00,28.0,22.0,-100.00,SSW,204,13.0,16.0,78,0.00,,,0.00,0.000000,,2013-01-07 13:52:00,
2013-01-07 08:22:00,26.0,22.0,-100.00,SSW,202,10.0,15.0,83,0.00,,,0.00,2.000000,,2013-01-07 14:22:00,
2013-01-07 08:33:00,26.0,22.0,-100.00,SSW,202,10.0,15.0,83,0.00,,,0.00,2.000000,,2013-01-07 14:33:00,
2013-01-07 08:42:00,26.0,22.0,-100.00,SSW,202,10.0,15.0,83,0.00,,,0.00,2.000000,,2013-01-07 14:42:00,
2013-01-07 08:53:00,26.0,22.0,-100.00,SSW,202,10.0,15.0,83,0.00,,,0.00,2.000000,,2013-01-07 14:53:00,
2013-01-07 09:22:00,27.0,23.0,-100.00,SSW,203,10.0,12.0,84,0.00,,,0.00,40.000000,,2013-01-07 15:22:00,
2013-01-07 09:33:00,27.0,23.0,-100.00,SSW,203,10.0,12.0,84,0.00,,,0.00,40.000000,,2013-01-07 15:33:00,
2013-01-07 09:43:00,27.0,23.0,-100.00,SSW,203,10.0,12.0,84,0.00,,,0.00,40.000000,,2013-01-07 15:43:00,
2013-01-07 09:53:00,27.0,23.0,-100.00,SSW,203,10.0,12.0,84,0.00,,,0.00,40.000000,,2013-01-07 15:53:00,
2013-01-07 10:22:00,29.0,25.0,-100.00,SW,230,8.0,12.0,83,0.00,,,0.00,131.000000,,2013-01-07 16:22:00,
2013-01-07 10:33:00,29.0,25.0,-100.00,SW,230,8.0,12.0,83,0.00,,,0.00,131.000000,,2013-01-07 16:33:00,
2013-01-07 10:43:00,29.0,25.0,-100.00,SW,230,8.0,12.0,83,0.00,,,0.00,131.000000,,2013-01-07 16:43:00,
2013-01-07 10:53:00,29.0,25.0,-100.00,SW,230,8.0,12.0,83,0.00,,,0.00,131.000000,,2013-01-07 16:53:00,
2013-01-07 11:23:00,32.0,27.0,-100.00,SW,229,10.0,12.0,81,0.00,,,0.00,335.000000,,2013-01-07 17:23:00,
2013-01-07 11:33:00,32.0,27.0,-100.00,SW,229,10.0,12.0,81,0.00,,,0.00,335.000000,,2013-01-07 17:33:00,
2013-01-07 11:42:00,32.0,27.0,-100.00,SW,229,10.0,12.0,81,0.00,,,0.00,335.000000,,2013-01-07 17:42:00,
2013-01-07 11:53:00,32.0,27.0,-100.00,SW,229,10.0,12.0,81,0.00,,,0.00,335.000000,,2013-01-07 17:53:00,
2013-01-07 12:23:00,33.0,26.0,-100.00,WSW,253,9.0,12.0,76,0.00,,,0.00,403.000000,,2013-01-07 18:23:00,
2013-01-07 12:33:00,33.0,26.0,-100.00,WSW,253,9.0,12.0,76,0.00,,,0.00,403.000000,,2013-01-07 18:33:00,
2013-01-07 12:42:00,33.0,26.0,-100.00,WSW,253,9.0,12.0,76,0.00,,,0.00,403.000000,,2013-01-07 18:42:00,
2013-01-07 12:52:00,33.0,26.0,-100.00,WSW,253,9.0,12.0,76,0.00,,,0.00,403.000000,,2013-01-07 18:52:00,
2013-01-07 13:23:00,33.0,27.0,-100.00,SW,233,7.0,11.0,78,0.00,,,0.00,525.000000,,2013-01-07 19:23:00,
2013-01-07 13:33:00,33.0,27.0,-100.00,SW,233,7.0,11.0,78,0.00,,,0.00,525.000000,,2013-01-07 19:33:00,
2013-01-07 13:43:00,33.0,27.0,-100.00,SW,233,7.0,11.0,78,0.00,,,0.00,525.000000,,2013-01-07 19:43:00,
2013-01-07 13:52:00,33.0,27.0,-100.00,SW,233,7.0,11.0,78,0.00,,,0.00,525.000000,,2013-01-07 19:52:00,
2013-01-07 14:23:00,34.0,25.0,-100.00,West,267,3.0,8.0,68,0.00,,,0.00,472.000000,,2013-01-07 20:23:00,
2013-01-07 14:33:00,34.0,25.0,-100.00,West,267,3.0,8.0,68,0.00,,,0.00,472.000000,,2013-01-07 20:33:00,
2013-01-07 14:42:00,34.0,25.0,-100.00,West,267,3.0,8.0,68,0.00,,,0.00,472.000000,,2013-01-07 20:42:00,
2013-01-07 14:52:00,34.0,25.0,-100.00,West,267,3.0,8.0,68,0.00,,,0.00,472.000000,,2013-01-07 20:52:00,
2013-01-07 15:23:00,34.0,24.0,-100.00,NW,317,5.0,8.0,67,0.00,,,0.00,455.000000,,2013-01-07 21:23:00,
2013-01-07 15:33:00,34.0,24.0,-100.00,NW,317,5.0,8.0,67,0.00,,,0.00,455.000000,,2013-01-07 21:33:00,
2013-01-07 15:43:00,34.0,24.0,-100.00,NW,317,5.0,8.0,67,0.00,,,0.00,455.000000,,2013-01-07 21:43:00,
2013-01-07 15:52:00,34.0,24.0,-100.00,NW,317,5.0,8.0,67,0.00,,,0.00,455.000000,,2013-01-07 21:52:00,
2013-01-07 16:23:00,34.0,25.0,-100.00,NE,40,3.0,8.0,69,0.00,,,0.00,285.000000,,2013-01-07 22:23:00,
2013-01-07 16:33:00,34.0,25.0,-100.00,NE,40,3.0,8.0,69,0.00,,,0.00,285.000000,,2013-01-07 22:33:00,
2013-01-07 16:42:00,34.0,25.0,-100.00,NE,40,3.0,8.0,69,0.00,,,0.00,285.000000,,2013-01-07 22:42:00,
2013-01-07 16:53:00,34.0,25.0,-100.00,NE,40,3.0,8.0,69,0.00,,,0.00,285.000000,,2013-01-07 22:53:00,
2013-01-07 17:22:00,30.0,26.0,-100.00,SE,140,3.0,5.0,85,0.00,,,0.00,97.000000,,2013-01-07 23:22:00,
2013-01-07 17:33:00,30.0,26.0,-100.00,SE,140,3.0,5.0,85,0.00,,,0.00,97.000000,,2013-01-07 23:33:00,
2013-01-07 17:43:00,30.0,26.0,-100.00,SE,140,3.0,5.0,85,0.00,,,0.00,97.000000,,2013-01-07 23:43:00,
2013-01-07 17:53:00,30.0,26.0,-100.00,SE,140,3.0,5.0,85,0.00,,,0.00,97.000000,,2013-01-07 23:53:00,
2013-01-07 18:22:00,24.0,22.0,-100.00,NNW,331,4.0,7.0,92,0.00,,,0.00,14.000000,,2013-01-08 00:22:00,
2013-01-07 18:33:00,24.0,22.0,-100.00,NNW,331,4.0,7.0,92,0.00,,,0.00,14.000000,,2013-01-08 00:33:00,
2013-01-07 18:42:00,24.0,22.0,-100.00,NNW,331,4.0,7.0,92,0.00,,,0.00,14.000000,,2013-01-08 00:42:00,
2013-01-07 18:52:00,24.0,22.0,-100.00,NNW,331,4.0,7.0,92,0.00,,,0.00,14.000000,,2013-01-08 00:52:00,
2013-01-07 19:22:00,22.0,22.0,-100.00,NW,305,0.0,4.0,100,0.00,,,0.00,0.000000,,2013-01-08 01:22:00,
2013-01-07 19:33:00,22.0,22.0,-100.00,NW,305,0.0,4.0,100,0.00,,,0.00,0.000000,,2013-01-08 01:33:00,
2013-01-07 19:42:00,22.0,22.0,-100.00,NW,305,0.0,4.0,100,0.00,,,0.00,0.000000,,2013-01-08 01:42:00,
2013-01-07 19:52:00,22.0,22.0,-100.00,NW,305,0.0,4.0,100,0.00,,,0.00,0.000000,,2013-01-08 01:52:00,
2013-01-07 20:22:00,18.0,17.0,-100.00,WNW,296,2.0,5.0,96,0.00,,,0.00,0.000000,,2013-01-08 02:22:00,
2013-01-07 20:33:00,18.0,17.0,-100.00,WNW,296,2.0,5.0,96,0.00,,,0.00,0.000000,,2013-01-08 02:33:00,
2013-01-07 20:42:00,18.0,17.0,-100.00,WNW,296,2.0,5.0,96,0.00,,,0.00,0.000000,,2013-01-08 02:42:00,
2013-01-07 20:53:00,18.0,17.0,-100.00,WNW,296,2.0,5.0,96,0.00,,,0.00,0.000000,,2013-01-08 02:53:00,
2013-01-07 21:22:00,16.0,16.0,-100.00,NW,307,1.0,3.0,100,0.00,,,0.00,0.000000,,2013-01-08 03:22:00,
2013-01-07 21:32:00,16.0,16.0,-100.00,NW,307,1.0,3.0,100,0.00,,,0.00,0.000000,,2013-01-08 03:32:00,
2013-01-07 21:43:00,16.0,16.0,-100.00,NW,307,1.0,3.0,100,0.00,,,0.00,0.000000,,2013-01-08 03:43:00,
2013-01-07 21:52:00,16.0,16.0,-100.00,NW,307,1.0,3.0,100,0.00,,,0.00,0.000000,,2013-01-08 03:52:00,
2013-01-07 22:22:00,16.0,16.0,-100.00,West,276,1.0,4.0,100,0.00,,,0.00,0.000000,,2013-01-08 04:22:00,
2013-01-07 22:32:00,16.0,16.0,-100.00,West,276,1.0,4.0,100,0.00,,,0.00,0.000000,,2013-01-08 04:32:00,
2013-01-07 22:42:00,16.0,16.0,-100.00,West,276,1.0,4.0,100,0.00,,,0.00,0.000000,,2013-01-08 04:42:00,
2013-01-07 22:52:00,16.0,16.0,-100.00,West,276,1.0,4.0,100,0.00,,,0.00,0.000000,,2013-01-08 04:52:00,
2013-01-07 23:22:00,9.0,9.0,-100.00,WSW,246,3.0,4.0,98,0.00,,,0.00,0.000000,,2013-01-08 05:22:00,
2013-01-07 23:33:00,9.0,9.0,-100.00,WSW,246,3.0,4.0,98,0.00,,,0.00,0.000000,,2013-01-08 05:33:00,
2013-01-07 23:42:00,9.0,9.0,-100.00,WSW,246,3.0,4.0,98,0.00,,,0.00,0.000000,,2013-01-08 05:42:00,
2013-01-07 23:53:00,9.0,9.0,-100.00,WSW,246,3.0,4.0,98,0.00,,,0.00,0.000000,,2013-01-08 05:53:00,